Regional Weather Roundup
Issued by NWS San Diego, CA

Home | Current Version | Previous Version | Text Only | Print | Product List | Glossary On
Versions: 1 2 3 4 5 6 7 8 9 10 11 12 13 14 15 16 17 18 19 20 21 22 23 24 25 26 27 28 29 30 31 32 33 34 35 36 37 38 39 40 41 42 43 44 45 46 47 48 49 50
000
ASUS46 KSGX 221210
RWRSGX

SAN DIEGO HOURLY WEATHER ROUNDUP
NATIONAL WEATHER SERVICE SAN DIEGO CA
500 AM PDT FRI AUG 22 2014

NOTE: "FAIR" INDICATES FEW OR NO CLOUDS BELOW 12,000 FEET WITH NO
SIGNIFICANT WEATHER AND/OR OBSTRUCTIONS TO VISIBILITY.

CAZ042-043-060-061-PZZ750-775-221300-

GREATER SAN DIEGO AREA

CITY           SKY/WX    TMP DP  RH WIND       PRES   REMARKS
LINDBERGH FLD  PTCLDY    70  63  78 CALM      29.94S
POINT LOMA       N/A     67  64  91 NW2         N/A
NATIONAL CITY    N/A     68  64  86 CALM      29.94S
CHULA VISTA      N/A     66  63  90 CALM      29.87F
IMPERIAL BEACH CLEAR     69  65  86 N3        29.93F
BROWN FIELD    CLEAR     65  61  87 CALM      29.94S
MIRAMAR MCAS   MOCLDY    63  59  87 CALM      29.94F
MONTGOMERY FLD CLEAR     68  63  84 CALM      29.94S

$$

NORTH SAN DIEGO COUNTY

CITY           SKY/WX    TMP DP  RH WIND       PRES   REMARKS
CAMP PENDLETON CLOUDY    64  60  87 NE3       29.93S
OCEANSIDE AP   CLOUDY    66  62  87 CALM      29.92F
VISTA            N/A     66  62  87 CALM      29.92S
CARLSBAD       PTCLDY    68  63  84 CALM      29.93S
DEL MAR          N/A     65  64  94 CALM      29.96S
LA JOLLA SCRIP   N/A     67  65  94 CALM      29.91R
FALLBROOK        N/A     65  65 100 CALM      29.94F
ESCONDIDO        N/A     66  63  89 NW3       29.94F
SAN MARCOS       N/A     65  61  86 CALM      29.91F
POWAY            N/A     63  59  88 CALM      29.94S
R. PENASQUITOS   N/A     66  64  93 CALM      29.93S

$$

EAST SAN DIEGO COUNTY

CITY           SKY/WX    TMP DP  RH WIND       PRES   REMARKS
RAMONA         CLEAR     61  59  93 NE3       29.96S
GILLESPIE FLD  FAIR      64  63  94 W3        29.95S
LA MESA          N/A     66  64  91 CALM      29.87S
JAMUL            N/A     62  59  91 CALM      29.91S
DESCANSO N       N/A     57  52  84 E3        29.82S
MT. LAGUNA OBS   N/A     58  44  60 W1        29.74F
CAMPO            N/A     55  51  86 NE5       29.98S

$$

ORANGE COUNTY AND THE LOS ANGELES BASIN

CITY           SKY/WX    TMP DP  RH WIND       PRES   REMARKS
JOHN WAYNE AP  CLEAR     71  63  75 CALM      29.93S
LAGUNA BEACH     N/A     65  62  89 CALM      29.88F
LAKE FOREST FR   N/A     64  58  82 CALM      29.84R
SANTA ANA        N/A     66  63  89 CALM      29.88S
HUNTINGTON BCH   N/A     65  62  91 CALM      29.95S
LOS ALAMITOS   FAIR      66  62  88 SW2       29.93S
FULLERTON      CLEAR     69  61  75 CALM      29.92S
LONG BEACH     CLEAR     68  63  84 CALM      29.92F
L.A. AP        MOCLDY    67  62  84 W5        29.93F
L.A. DOWNTOWN  CLEAR     66  62  87 CALM      29.92F

$$

THE INLAND EMPIRE

CITY           SKY/WX    TMP DP  RH WIND       PRES   REMARKS
CHINO          CLEAR     65  60  84 SE3       29.95F
ONTARIO        CLEAR     68  61  78 CALM      29.94F
RIVERSIDE AP   CLEAR     68  61  78 CALM      29.95S
RIV CYN CREST    N/A     68  67  99 CALM      29.93S
MORENO VALLEY    N/A     65  64  94 CALM      29.14S
MARCH ARB      CLEAR     65  63  93 NW1       29.97S
HORSETHIEF CYN   N/A     65  56  72 CALM      29.94F
PERRIS           N/A     67  62  84 CALM      29.95S
MENIFEE          N/A     67  63  86 CALM      30.02F
HEMET EAST       N/A     65  49  56 CALM      29.93F
FRENCH VALLEY  FAIR      64  59  82 CALM      29.96S
TEMECULA         N/A     64  62  92 CALM      29.93S

$$

SAN BERNARDINO AND RIVERSIDE COUNTY MOUNTAINS

CITY           SKY/WX    TMP DP  RH WIND       PRES   REMARKS
BIG BEAR AP    CLEAR     43  41  93 CALM      30.23S
BIG BEAR SHEA    N/A     43  39  86 CALM      29.97F
ANGELUS OAKS     N/A     54  47  77 CALM      29.85S
PINE COVE        N/A     56  50  80 N3        29.81F

$$

SOUTHERN DESERT INCLUDING THE COACHELLA VALLEY

CITY           SKY/WX    TMP DP  RH WIND       PRES   REMARKS
PALM SPRINGS   CLEAR     75  61  61 E3        29.94R
THOUSAND PALMS   N/A     74  61  63 E2        29.89R
PALM DESERT      N/A     74  64  71 CALM      31.64
THERMAL        CLEAR     69  59  70 S3        29.88R
BLYTHE         CLEAR     69  67  93 CALM      29.92S
IMPERIAL AP    CLEAR     71  66  84 CALM      29.89R
EL CENTRO NAS  CLEAR     70  66  87 CALM      29.89S
YUMA AZ        CLEAR     72  64  76 NE6       29.90S
MEXICALI       CLEAR     68  66  94 CALM      29.90

$$

UPPER DESERT

CITY           SKY/WX    TMP DP  RH WIND       PRES   REMARKS
VICTORVILLE AP CLEAR     64  52  63 S7        30.01F
HESPERIA         N/A     64  55  72 CALM      30.00S
APPLE VALLEY     N/A     62  54  75 CALM      30.09S
GRAY BUTTE AP  FAIR      62  47  56 S5        30.00F
PALMDALE       CLEAR     70  49  47 W6        29.99F
LANCASTER      CLEAR     70  53  54 SW8       29.98F
EDWARDS AFB    CLEAR     68  52  56 S8        29.96S
DAGGETT        CLEAR     70  56  61 NW3       29.95F
29 PALMS N     CLEAR     68  56  65 CALM      30.05R
NEEDLES        CLEAR     76  58  53 SW5       29.94R

$$

REGIONAL REPORTS

CITY           SKY/WX    TMP DP  RH WIND       PRES   REMARKS
SANTA BARBARA  CLOUDY    63  60  90 CALM      29.92F
SANDBERG       CLEAR     65  47  52 NW7       30.11F
MT. WILSON       N/A     59  43  55 MISG        N/A
LAS VEGAS NV   PTCLDY    71  51  49 S8        29.93S
PHOENIX AZ     PTCLDY    73  65  75 SE6       29.94S
TIJUANA        CLOUDY    66  61  82 CALM      29.96F
ENSENADA NW      N/A     69  32  25 W1        29.91S

$$

OFFSHORE ISLANDS

CITY           SKY/WX    TMP DP  RH WIND       PRES   REMARKS
CATALINA ARPT  FOG       61  59  93 E3        29.96F VSB 1/2
SAN NICOLAS IS CLOUDY   N/A N/A N/A W7        29.94S

$$

MARINE AND OFFSHORE BUOY REPORTS

STATION/POSITION SKY/WX   TEMP    WIND        PRES    SWELL
                          AIR SEA DIR/SP/G            HT/PER/DIR
                          (F)     (DEG/KT/KT) (MB)    (FT/S/D)
TANNER BANKS               65 68  320/  4/  8 1014.1S   5/180/11
S CLEMENTE BASIN           67 70  330/  4/  6 1013.5F   5/180/10
SAN NICOLAS IS.               66                N/A     3/180/11
SO. S. ROSA ISLA           62 67  310/  8/ 12 1013.3F   5/12
W. S. BARBARA CH           60 62  320/ 12/ 14 1012.8F   3/170/11
S. MONICA BASIN            67 72  320/  2/  4 1013.3F   3/170/10
S PEDRO CHANNEL               69                N/A     2/170/11
DANA POINT                    71                N/A     3/180/11
CMP PENDLETON NS              72                N/A     2/210/11
OCEANSIDE OFFSHR              73                N/A     3/190/11
TORREY PINES OTR              73                N/A     2/190/11
LA JOLLA 1                 69 70   60/  3/  4 1013.6R
MISSION BAY BUOY              71                N/A     3/190/11
SAN DIEGO BAY                 74              1014.0S
POINT LOMA SOUTH              73                N/A     3/190/11

$$



USA.gov is the U.S. government's official web portal to all federal, state and local government web resources and services.